Regional Weather Roundup
Issued by NWS

Home | Current Version | Previous Version | Graphics & Text | Print | Product List | Glossary On
Versions: 1 2 3 4 5 6 7 8 9 10 11 12 13 14 15 16 17 18 19 20 21 22 23 24 25 26 27 28 29 30 31 32 33 34 35 36 37 38 39 40 41 42 43 44 45 46 47
000
ASUS45 KBOU 181507
RWRCO

WEATHER ROUNDUP FOR COLORADO
NATIONAL WEATHER SERVICE DENVER/BOULDER CO
900 AM MDT THU SEP 18 2014

NOTE: "FAIR" INDICATES FEW OR NO CLOUDS BELOW 12000 FEET WITH NO
SIGNIFICANT WEATHER AND/OR OBSTRUCTIONS TO VISIBILITY.

COZ001>005-013-030-031-181600-
...NORTHWEST COLORADO...

CITY           SKY/WX    TMP DP  RH WIND       PRES   REMARKS
CRAIG          SUNNY     54  41  61 CALM      30.14F
HAYDEN         SUNNY     57  37  47 E10       30.16S
MEEKER         SUNNY     55  40  56 CALM      30.15F
MOUNT WERNER   NOT AVBL
STEAMBOAT SPGS SUNNY     51  39  63 CALM      30.18F
WALDEN         SUNNY     46  37  71 CALM      30.28S
$$

COZ006>008-011-181600-
...WEST CENTRAL VALLEYS...

CITY           SKY/WX    TMP DP  RH WIND       PRES   REMARKS
GRAND JUNCTION SUNNY     65  42  43 SE7       30.05S
MONTROSE       SUNNY     62  44  51 S3        30.14S
EAGLE          SUNNY     50  37  62 CALM      30.25S
RIFLE          SUNNY     56  43  61 CALM      30.13S
DELTA          SUNNY     64  42  45 CALM      30.11S HAZE
NUCLA          SUNNY     59  43  55 E3        30.17S
$$

COZ017>023-064>068-181600-
...SOUTHWEST COLORADO...

CITY           SKY/WX    TMP DP  RH WIND       PRES   REMARKS
DURANGO        SUNNY     54  47  77 CALM      30.17S
CORTEZ         SUNNY     57  47  69 E3        30.14S
PAGOSA SPRINGS SUNNY     59  40  49 CALM      30.24S
TELLURIDE      NOT AVBL
WOLF CREEK PAS SUNNY     46  32  57 NE13      30.52R
$$

COZ009-010-012-014-032>034-037-058>063-181600-
...CENTRAL COLORADO...

CITY           SKY/WX    TMP DP  RH WIND       PRES   REMARKS
ASPEN          SUNNY     57  37  47 N3        30.25S
BUENA VISTA    SUNNY     55  36  48 N3        30.30S
COPPER MTN     SUNNY     59  28  31 SE7       30.54S
BERTHOUD PASS  FAIR      46  45  93 MISG      30.60R
COTTONWOOD PAS SUNNY     59  32  36 SE3       30.40R
GUNNISON       SUNNY     48  36  61 CALM      30.32S
KREMMLING      SUNNY     46  36  66 CALM      30.30S
LEADVILLE      SUNNY     50  32  50 CALM      30.40S
MONARCH PASS   SUNNY     50  32  50 CALM      30.64R
SALIDA         SUNNY     56  37  48 NW3       30.35S
SUNLIGHT       SUNNY     55  34  44 CALM      30.46S
WILKERSON PASS NOT AVBL
$$

COZ069>075-181600-
...SAN LUIS VALLEY/SANGRE DE CRISTO MOUNTAINS...

CITY           SKY/WX    TMP DP  RH WIND       PRES   REMARKS
ALAMOSA        SUNNY     55  40  56 N5        30.25S
LA VETA PASS   NOT AVBL
SAGUACHE       NOT AVBL
$$

COZ035-036-038>040-181600-
...NORTHERN COLORADO FRONT RANGE...

CITY           SKY/WX    TMP DP  RH WIND       PRES   REMARKS
DENVER INTL AP MOSUNNY   70  43  37 SW9       30.07R
DMNS CITY PARK   N/A     68  45  42 SW2       30.07R
AURORA         MOSUNNY   67  43  41 SW9       30.09R
FRONT RANGE AP SUNNY     72  45  37 SW9       30.08
ERIE MUNI ARPT SUNNY     68  40  35 CALM      30.06R
BOULDER MUN AP SUNNY     66  45  45 CALM      30.06R
CENTENNIAL     MOSUNNY   69  41  36 SW6       30.10R
BROOMFIELD     MOSUNNY   66  43  42 CALM      30.09R
FORT COLLINS   SUNNY     63  48  59 SE3       30.06S
LONGMONT       SUNNY     68  46  45 S3        30.06S
$$

COZ041-046-047-076>085-087-088-181600-
...PIKES PEAK/PALMER DIVIDE AND SOUTHERN FOOTHILLS...

CITY           SKY/WX    TMP DP  RH WIND       PRES   REMARKS
COLO. SPRINGS  MOSUNNY   75  41  29 CALM      30.13R
A. F. ACADEMY  SUNNY     67  40  37 N6        30.15R
ELLICOTT       NOT AVBL
FALCON         SUNNY     73  36  25 CALM      30.19R
FORT CARSON    SUNNY     69  42  36 N9        30.10R
LIMON          SUNNY     70  43  37 W6        30.07S
MONUMENT HILL  SUNNY     70  36  28 SW5       30.17S
TRINIDAD       SUNNY     67  36  31 W8        30.11R
$$

COZ042>045-048>051-090-091-181600-
...NORTHEAST COLORADO...

CITY           SKY/WX    TMP DP  RH WIND       PRES   REMARKS
GREELEY ARPT   SUNNY     61  45  55 CALM      30.05S
AKRON          SUNNY     68  46  45 CALM      30.03R
BURLINGTON     CLOUDY    61  60  97 SE3       30.02R FOG
WRAY           CLOUDY    68  61  77 E6        30.00S
STERLING       SUNNY     59  52  77 S5        30.00S
HOLYOKE        CLOUDY    70  63  78 S7        30.00R
FORT MORGAN    SUNNY     62  45  53 W7        30.03R
$$

COZ086-089-092>099-181600-
...SOUTHEAST COLORADO...

CITY           SKY/WX    TMP DP  RH WIND       PRES   REMARKS
PUEBLO         SUNNY     68  39  34 W7        30.03S
LA JUNTA       SUNNY     66  42  41 W9        30.01R
LAMAR          SUNNY     67  45  45 W8        29.98R
SPRINGFIELD      N/A     75  54  47 W5        30.03R
$$



USA.gov is the U.S. government's official web portal to all federal, state and local government web resources and services.